Tracking 28052 objects as of 22-Sep-2023
HD Live streaming from Space Station
objects crossing your sky now

COSMOS 839 DEB *

Track COSMOS 839 DEB * now!
10-day predictions


NORAD ID: 18689
Int'l Code: 1976-067BR
Perigee: 1,121.9 km
Apogee: 2,663.9 km
Inclination: 65.8 °
Period: 124.6 minutes
Semi major axis: 8263 km
RCS: 0.0093 m2 (small)
Launch date: July 8, 1976
Source: Commonwealth of Independent States (former USSR) (CIS)
Launch site: PLESETSK MISSILE AND SPACE COMPLEX (PKMTR)

Note: This is SATELLITE DEBRIS
Your satellite tracking list
Your tracking list is empty




NASA's NSSDC Master Catalog

Two Line Element Set (TLE):
1 18689U 76067BR  23264.69849066  .00000160  00000-0  14765-2 0  9995
2 18689  65.8176 150.9146 0932981 136.1842 265.7924 11.55656628275363
Source of the keplerian elements: AFSPC